Flight Track Log - Related Links

Times and Time Zones

All times are in EDT time to prevent confusion due to time zone crossing. See the N891CA flight status page for this flight to view local times or setup timezone preferences in your user account.

Time Position Orientation Groundspeed Altitude Reporting Facility
EDT Latitude Longitude Course Direction KTS MPH feet Rate Location/Type
07:58PM 33.8333 -84.3000 140° Southeast 176 203 2,900  Level Atlanta TRACON
07:59PM 33.7833 -84.2500 140° Southeast 248 285 3,000 50 Climbing Atlanta TRACON
08:00PM 33.7333 -84.2167 151° Southeast 226 260 3,000  Level Atlanta TRACON
08:01PM 33.6833 -84.1833 151° Southeast 201 231 3,000 350 Level Atlanta TRACON
08:02PM 33.6333 -84.1667 164° South 202 232 3,700 1,105 Climbing Atlanta TRACON
08:03PM 33.5667 -84.1667 180° South 233 268 5,100 1,700 Climbing Atlanta TRACON
08:04PM 33.5000 -84.1667 180° South 246 283 7,100 1,696 Climbing Atlanta TRACON
08:06PM 33.3600 -84.1283 167° South 258 297 10,300 1,483 Climbing Atlanta Center
08:07PM 33.2953 -84.1033 162° South 258 297 11,500 1,350 Climbing Atlanta Center
08:08PM 33.2286 -84.0661 155° Southeast 269 310 13,000 1,350 Climbing Atlanta Center
08:09PM 33.1597 -84.0289 156° South 276 318 14,200 1,250 Climbing Atlanta Center
08:10PM 33.0908 -83.9892 154° Southeast 276 318 15,500 1,450 Climbing Atlanta Center
08:11PM 33.0136 -83.9472 156° South 276 318 17,100 1,450 Climbing Atlanta Center
08:12PM 32.9425 -83.9125 158° South 276 318 18,400 1,300 Climbing Atlanta Center
08:13PM 32.8736 -83.8756 156° South 270 311 19,700 1,250 Climbing Atlanta Center
08:14PM 32.8131 -83.8486 159° South 270 311 20,900 1,200 Climbing Atlanta Center
08:15PM 32.7461 -83.8142 157° South 270 311 22,100 1,350 Climbing Atlanta Center
08:16PM 32.6772 -83.7772 156° South 270 311 23,600 1,350 Climbing Atlanta Center
08:17PM 32.6125 -83.7431 156° South 265 305 24,800 1,000 Climbing Atlanta Center
08:18PM 32.5436 -83.7111 159° South 265 305 25,600 600 Climbing Atlanta Center
08:19PM 32.4725 -83.6719 155° Southeast 270 311 26,000 200 Climbing Atlanta Center
08:20PM 32.3950 -83.6306 156° South 288 331 26,000  Level Atlanta Center
08:21PM 32.3114 -83.5867 156° South 313 360 26,000  Level Atlanta Center
08:22PM 32.2278 -83.5428 156° South 325 374 26,000  Level Atlanta Center
08:23PM 32.1400 -83.4992 157° South 331 381 26,000  Level Atlanta Center
08:24PM 32.0256 -83.4389 156° South 324 373 26,000  Level Jacksonville Center
08:25PM 31.9483 -83.3994 157° South 324 373 26,000  Level Jacksonville Center
08:26PM 31.8631 -83.3525 155° Southeast 335 386 26,000  Level Jacksonville Center
08:27PM 31.7756 -83.3106 158° South 335 386 26,000  Level Jacksonville Center
08:28PM 31.6900 -83.2661 156° South 335 386 26,000  Level Jacksonville Center
08:29PM 31.6044 -83.2219 156° South 335 386 26,000  Level Jacksonville Center
08:30PM 31.5189 -83.1825 159° South 335 386 26,000  Level Jacksonville Center
08:31PM 31.4333 -83.1361 155° Southeast 335 386 26,000  Level Jacksonville Center
08:32PM 31.3500 -83.0944 157° South 330 380 26,000  Level Jacksonville Center
08:33PM 31.2644 -83.0531 158° South 330 380 26,000 -150 Level Jacksonville Center
08:34PM 31.1789 -83.0117 158° South 330 380 25,700 -600 Descending Jacksonville Center
08:35PM 31.0892 -82.9653 156° South 335 386 24,800 -750 Descending Jacksonville Center
08:36PM 30.9994 -82.9217 157° South 340 391 24,200 -400 Descending Jacksonville Center
08:37PM 30.9075 -82.8781 158° South 346 398 24,000 -450 Descending Jacksonville Center
08:38PM 30.8178 -82.8322 156° South 351 404 23,300 -1,100 Descending Jacksonville Center
08:39PM 30.7258 -82.7839 156° South 356 410 21,800 -1,650 Descending Jacksonville Center
08:40PM 30.6381 -82.7406 157° South 356 410 20,000 -2,000 Descending Jacksonville Center
08:41PM 30.5442 -82.6925 156° South 351 404 17,800 -1,950 Descending Jacksonville Center
08:42PM 30.4625 -82.6492 155° Southeast 345 397 16,100 -1,750 Descending Jacksonville Center
08:43PM 30.3894 -82.6181 160° South 333 383 14,300 -1,950 Descending Jacksonville Center
08:44PM 30.3100 -82.5775 156° South 320 368 12,200 -2,000 Descending Jacksonville Center
08:45PM 30.2347 -82.5414 157° South 304 350 10,300 -1,948 Descending Jacksonville Center
08:46PM 30.2075 -82.5272 156° South 282 325 9,700 -1,300 Descending Jacksonville Center
08:46PM 30.1636 -82.5058 157° South 291 335 9,000 -918 Descending Jacksonville Center
08:47PM 30.1072 -82.4794 158° South 268 308 8,400 -1,000 Descending Jacksonville Center
08:47PM 30.0967 -82.4725 150° Southeast 278 320 8,000 -1,967 Descending Jacksonville Center
08:48PM 30.0403 -82.4464 158° South 265 305 6,400 -2,000 Descending Jacksonville Center
08:48PM 30.0297 -82.4392 149° Southeast 272 313 6,000 -2,066 Descending Jacksonville Center
08:49PM 29.9711 -82.4131 159° South 258 297 4,300 -2,000 Descending Jacksonville Center
08:49PM 29.9567 -82.4036 150° Southeast 267 307 4,000 -1,300 Descending Jacksonville Center
08:50PM 29.9106 -82.3917 167° South 223 257 3,000 -1,300 Descending Jacksonville Center
08:50PM 29.8958 -82.3847 158° South 248 285 2,700 -689 Descending Jacksonville Center
08:51PM 29.8500 -82.3753 170° South 226 260 2,300 -500 Descending Jacksonville Center
08:51PM 29.8375 -82.3683 154° Southeast 232 267 2,200 -492 Descending Jacksonville Center
08:52PM 29.7914 -82.3589 170° South 207 238 1,800 -238 Descending Jacksonville Center
08:53PM 29.7475 -82.3472 167° South 188 216 1,800 -81 Level Jacksonville Center
08:53PM 29.7308 -82.3378 154° Southeast 200 230 1,700 -590 Descending Jacksonville Center
08:54PM 29.7058 -82.3331 171° South 147 169 1,200 -700 Descending Jacksonville Center
08:54PM 29.6972 -82.3211 130° Southeast 169 194 1,000 -600 Descending Jacksonville Center
08:55PM 29.6931 -82.3019 104° East 91 105 600 -200 Descending Jacksonville Center
08:55PM 29.6806 -82.2972 162° South 121 139 800 667 Climbing Jacksonville Center
08:57PM 29.6833 -82.2667 157° South  Level FlightAware Approximate

Login

Don't have an account? Register now (free) for customized features, flight alerts, and more!